FENGYUN 1C DEB, 30500

Orbit data source: Space-Track

FENGYUN 1C DEB, 30500 is space debris in SSO originally from a launch on Mon, 10 May 1999 UTC launched from the Taiyaun Space Center, China (TSC). Fengyun 1C debris stems from the Chinese weather satellite Fengyun-1C, which was intentionally destroyed by a Chinese anti-satellite missile in 2007. This event dramatically increased the amount of space debris, with thousands of trackable fragments posing hazards to satellites and human spaceflight. The Fengyun 1C debris cloud has become a focal point in discussions about space sustainability and the need for international regulations to prevent the creation of new debris.

Loading next visibility...
Identifier
30500, 1999-025AHN
Orbit
SSO
Country
Flag of CNCN / PRC
Related business
Manufacturer
Unknown
Mission
Spacecraft
Bus & Motor
Unknown
Mass
Unknown
Launch date (UTC)
1999-05-10 (27 years ago)
Launch vehicle
Unknown
Launch site
Taiyaun Space Center, China (TSC)
Object type
Payload
Rocket body
Debris
Shape & HBR
Unknown shape, 0.1 m
Radar Cross Section
Small (<0.1 m²)

Expand to show TLE details & history
Last TLE update: 7 hours ago

TLE from 7 hours ago
0 FENGYUN 1C DEB
1 30500U 99025AHN 26106.23953595  .00002820  00000-0  11576-2 0  9993
2 30500  99.0671 207.0594 0064990 117.5896 272.3341 14.26750367984569
Epoch: 2026-04-16T05:44Z
TLE epoch observation values (Epoch: 2026-04-16T05:44:55.906Z)
Latitude
28.82761°
Longitude
-88.5756°
Altitude
804.575 km
Speed
7.455 km/s
True Right ascension
13h 28m 11s
True Declination
28° 41' 01"
Sunlit
Object was in full shadow at epoch
Visualization orbit readout
Latitude
Unknown
Longitude
Unknown
Altitude
Unknown
Speed
Unknown
Apparent Right ascension
Unknown
Apparent Declination
Unknown
Sunlit
N/A
Visualization observer readout
Local Sidereal Time
19:52:14
Azimuth
Unknown
Elevation
Unknown
Doppler factor
Unknown
Orbital elements
Apogee altitude
846.43 km
Perigee altitude
753.131 km
Semi-major axis
7,177.918 km
Eccentricity
0.0065
Inclination
99.0671°
RAAN
207.0594°
Arg. of periapsis
117.5896°
True anomaly
271.58976°
Mean anomaly
272.3341°
Eccentric anomaly
271.96195°
Mean motion
3.56899 °/min
Orbital period
100.87 mins
BSTAR
0.0011576
Loading maneuver chart data...
Computing Atmospheric mass density...
Loading historical data...
Loading historical data...
Loading historical data...
Loading historical data...
Loading historical data...
Loading historical data...
Loading historical data...

Documentation

Showing up to 5 results
|